Flag for U.S.A. Weather past 2 weeks in Springfield, Massachusetts, U.S.A.

Now
39 °F

Sunny.


Feels Like: 32 °F
Forecast: 30 / 57 °F
Wind: 10 mph from Northwest

Location: Barnes Municipal Airport

Current Time: Apr 25, 2015 at 8:56:51 AM

Latest Report: Apr 25, 2015 at 7:53 AM


Visibility: 10 mi

Pressure: 29.84 "Hg

Humidity: 50%

Dew point: 22 °F

Location of SpringfieldLocation

Historic Weather in Springfield — Graph

°F

Springfield temperature yesterday

Maximum temperature yesterday: 46 °F (at 3:53 PM)
Minimum temperature yesterday: 36 °F (at 4:53 AM)
Average temperature yesterday: 40 °F

Past Weeks' High & Low Weather Summary

 TemperatureHumidityPressure
High77 °F (Apr 18, 3:04 PM)97% (Apr 10, 10:53 PM)30.50 "Hg (Apr 10, 10:53 PM)
Low32 °F (Apr 13, 5:53 AM)14% (Apr 15, 1:53 PM)29.52 "Hg (Apr 22, 3:53 PM)
Average51 °F54%29.98 "Hg
* Reported Apr 10 6:04 AM — Apr 25 6:53 AM, Springfield, Weather by CustomWeather, © 2015

Note: Actual official high and low records may vary slightly from our data, if they occured in-between our weather recording intervals... More about our weather records

Advertising

Springfield weather history for previous 24 hours

 ConditionsComfort  
Time TempWeatherWind HumidityBarometerVisibility
6:53 AM
Sat, Apr 25
36 °FClear.7 mph57%29.84 "Hg10 mi
5:53 AM33 °FClear.5 mph61%29.82 "Hg10 mi
4:53 AM34 °FClear.3 mph59%29.81 "Hg10 mi
3:53 AM34 °FClear.7 mph59%29.82 "Hg10 mi
2:53 AM34 °FClear.No wind56%29.82 "Hg10 mi
1:53 AM36 °FClear.3 mph52%29.83 "Hg10 mi
12:53 AM36 °FClear.12 mph52%29.85 "Hg10 mi
11:53 PM
Fri, Apr 24
37 °FPassing clouds.14 mph50%29.86 "Hg10 mi
10:53 PM38 °FPassing clouds.17 mph48%29.87 "Hg10 mi
9:53 PM39 °FOvercast.18 mph45%29.88 "Hg10 mi
8:53 PM39 °FOvercast.14 mph45%29.88 "Hg10 mi
7:53 PM40 °FOvercast.16 mph43%29.86 "Hg10 mi
6:53 PM41 °FOvercast.20 mph43%29.84 "Hg10 mi
5:53 PM42 °FOvercast.20 mph41%29.83 "Hg10 mi
4:53 PM43 °FOvercast.20 mph37%29.81 "Hg10 mi
3:53 PM46 °FPartly sunny.16 mph35%29.78 "Hg10 mi
2:53 PM43 °FOvercast.20 mph42%29.79 "Hg10 mi
1:53 PM44 °FOvercast.22 mph41%29.78 "Hg10 mi
12:53 PM44 °FOvercast.18 mph38%29.79 "Hg10 mi
11:53 AM42 °FOvercast.17 mph43%29.80 "Hg10 mi
10:53 AM43 °FOvercast.20 mph40%29.80 "Hg10 mi
9:53 AM42 °FPartly sunny.13 mph43%29.81 "Hg10 mi
8:53 AM40 °FPartly sunny.15 mph49%29.81 "Hg10 mi
Weather by CustomWeather, © 2015

See weather overviewHow to use our weather pages